Location: Clarion Chiropractic Clinic
(42.7328°N, 93.7344°W)
Time: 21:23:32
(UTC+00:00)

Daily predictions for brighter satellites

Satellite Brightness Start Highest point End
(mag) Time Altitude Azimuth Time Altitude Azimuth Time Altitude Azimuth
Cosmos 1400 Rocket 3.8 12:00:25 10° S 12:04:02 46° E 12:07:41 10° NNE
Cosmos 1812 3.6 12:02:23 10° SSE 12:04:35 31° E 12:06:48 10° NNE
Exosat Rocket 3.6 12:00:16 10° NNW 12:05:51 61° WSW 12:10:45 10° S
Cosmos 1300 Rocket 4.4 12:02:06 10° S 12:06:22 55° E 12:10:41 10° NNE
CZ-2C R/B 4.3 12:04:50 10° NNW 12:05:21 11° NW 12:05:21 11° NW
NOSS 3-1 (C) 2.9 12:02:55 10° SSW 12:07:26 83° SE 12:12:49 10° NE
Cosmos 1674 Rocket 3.7 12:06:13 10° NNW 12:10:30 49° W 12:14:44 10° SSW
IRS-1D 3.8 12:05:40 10° N 12:10:37 45° WNW 12:15:28 10° SW
Cosmos 1980 Rocket 2.1 12:05:24 10° SSW 12:10:59 76° WNW 12:16:36 10° NNE
COSMOS 2455 2.9 12:10:31 10° SW 12:16:25 58° NW 12:22:23 10° NNE
USA 215 3.3 12:10:20 10° SE 12:16:54 75° SW 12:23:30 10° NW
Cosmos 2084 4.3 12:19:33 16° WNW 12:22:00 28° WSW 12:25:29 10° S
Cosmos 1697 Rocket 3.5 12:18:43 10° WSW 12:23:35 29° NW 12:28:30 10° N
Cosmos 1503 Rocket 4.0 12:19:23 10° SSW 12:24:28 60° WNW 12:29:38 10° NNE
Cosmos 1484 Rocket 2.4 12:21:01 10° N 12:24:30 81° WNW 12:28:00 10° SSW
Cosmos 2297 Rocket 3.6 12:23:26 13° WNW 12:25:52 17° W 12:29:22 10° SW
IGS 5A 3.5 12:26:00 10° N 12:29:52 51° WNW 12:33:42 10° SSW
CZ-4 R/B 4.5 12:25:25 10° N 12:29:56 36° WNW 12:34:25 10° SW
USA 59 Rocket 1.0 12:32:31 13° W 12:34:14 17° NW 12:36:21 10° N
COSMO-SKYMED 1 3.3 12:31:01 10° SSW 12:34:37 29° W 12:38:14 10° NW
Cosmos 2219 3.3 12:30:41 10° NNW 12:36:27 87° ENE 12:42:08 10° SSE
CORIOLIS 4.4 12:32:24 10° NNE 12:37:49 77° ESE 12:43:10 10° S
Landsat 7 3.9 12:38:45 10° NNE 12:43:25 86° ESE 12:48:04 10° SSW
Cosmos 1975 Rocket 3.3 12:43:32 10° N 12:47:50 75° E 12:52:06 10° SSE
Cosmos 1782 Rocket 3.6 12:46:35 10° SSW 12:50:54 56° W 12:55:15 10° N
Cosmos 2173 Rocket 4.2 12:45:32 10° S 12:51:52 84° E 12:58:17 10° N
